Location: Lachaise
(45.8833°N, 1.8500°E)
Time: 04:50:41
(UTC+00:00)

IRS-1C - Pass Details

Date: 07 June 2020
Orbit: 815 x 817 km, 98.8° (Epoch: 10 July)

Event Time Altitude Azimuth Distance (km) Brightness Sun altitude
Rises 02:59:13 0° 10° (N) 3,355 8.4 -9.2°
Reaches altitude 10° 03:01:36 10° 7° (N) 2,419 7.5 -8.9°
Maximum altitude 03:06:50 57° 290° (WNW) 958 4.4 -8.3°
Drops below altitude 10° 03:12:01 10° 213° (SSW) 2,402 5.9 -7.7°
Enters shadow 03:12:22 - 212° (SSW) 2,536 6.1 -7.6°
